OV1-4 R/B

Satellite information

Favourite Embed

Satellite Type and Status

ROCKET BODYIN ORBIT

Key statistics

Satellite OV1-4 R/B at a glance.

Uptime

21809

Days in orbit

Revolutions

≈ 13.9

Per day

Orbit

SSO

Sun Synchronous Orbit

Inclination

144.5

Latest

Satellite identification and parameters

Extended collection of information and parameters for OV1-4 R/B.

Object identification

Identified? True

Debris? False

Object name: OV1-4 R/B

International designator: 1966-025D

Object number (NORAD): 2124

Object ID (CCSDS): 2124

Country: UNITED STATES OF AMERICA (US)

Current information (Y/N): Y

RCS size: MEDIUM

Orbital parameters

Period: 103.761 minutes

Inclination: 144.5082 deg

SMA: 7314.46 km

Apoapsis: 995.61 km

Periapsis: 877.039 km

RAAN: 201.3952 deg

Eccentricy: 0.00810526

Argument of periapsis: 219.3741 deg

Mean anomaly: 140.1016 deg

Mean motion: 13.87807963 rev/day

Mean motion (dot): 0.00000439 rev/day2

B* drag term: 0.00014037541 1/REarth

Two-line elements (TLE)

Creation date: Dec. 13, 2025, 5:47 p.m.

Reference frame: TEME

Reference center: EARTH

Epoch: Dec. 13, 2025, 2:04 a.m. UTC

TLE line 0: 0 OV1-4 R/B

TLE line 1: 1 02124U 66025D 25347.08652028 .00000439 00000-0 14038-3 0 9995

TLE line 2: 2 02124 144.5082 201.3952 0081053 219.3741 140.1016 13.87807963 25733

Live tracking on map

Real-time ground track for satellite OV1-4 R/B.

In-orbit conjunctions

A list of the most updated potential collisions computed for object OV1-4 R/B.

Target Orbit TCA Probability of collision Miss distance Type
GGSE 3 LEO 2024-11-05 07:40:48 0.002332664 122.0 (m) PAYLOAD

Associated space launch

The OV1 (Orbiting Vehicle 1) were small research satellite to be launched piggy back on Atlas ICBM test flights. They consisted in general of the OV1 satellite and the OV1-PM propulsion module (or upper stage) to reach orbit.

OV1-4 R/B was lifted into orbit during the mission ‘Atlas D | OV1-4 & 5’, on board a Atlas D space rocket.

The launch took place on March 30, 1966, 9:20 a.m. from 576B3.

For more information about the launch, click the button.

Launch to space Atlas D | OV1-4 & 5
Atlas D | OV1-4 & 5

Agency: N/A

Status: Launch Successful

Launch date: March 30, 1966, 9:20 a.m. UTC

Rocket: Atlas D

Launch pad: 576B3

Location: Vandenberg SFB, CA, USA

...

Latest news about this satellite

There are no fresh news available about this satellite. Check back as we update our databases every day.


Newsletter sign-up

Weekly statistics, charts and insights to help you stay on top of the space industry.